Regional Weather Roundup
Issued by NWS

Home | Current Version | Previous Version | Text Only | Print | Product List | Glossary Off
Versions: 1 2 3 4 5 6 7 8 9 10 11 12 13 14 15 16 17 18 19 20 21 22 23 24 25 26 27 28 29 30 31 32 33 34 35 36 37 38 39 40 41 42 43 44 45 46 47 48 49 50

000
ASUS43 KLMK 211710
RWRKY
KENTUCKY REGIONAL WEATHER ROUNDUP
NATIONAL WEATHER SERVICE LOUISVILLE KY
100 PM EDT SUN SEP 21 2014

NOTE "FAIR" INDICATES FEW OR NO CLOUDS BELOW 12,000 FEET
WITH NO SIGNIFICANT WEATHER AND/OR OBSTRUCTIONS TO VISIBILITY.

KYZ001>023-026-027-061>063-070>075-211800-
WESTERN AND SOUTH CENTRAL KENTUCKY

CITY           SKY/WX    TMP DP  RH WIND       PRES   REMARKS
PADUCAH        MOSUNNY   83  66  56 NW10      30.00S
HENDERSON      SUNNY     77  50  38 NW16G24   29.98S
OWENSBORO      MOSUNNY   78  56  46 NW14G21   29.96R
HOPKINSVILLE   MOSUNNY   80  71  74 W12       29.97S
BOWLING GREEN  MOSUNNY   78  68  71 W9        29.96F
GLASGOW        PTSUNNY   75  67  76 W9        29.95F
$$

KYZ024-025-028>034-038-045-046-053-211800-
NORTH CENTRAL KENTUCKY

CITY           SKY/WX    TMP DP  RH WIND       PRES   REMARKS
LOUISVILLE/SDF PTSUNNY   80  63  55 NW15      29.89S
LOUISVILLE/LOU MOSUNNY   80  63  55 W14G21    29.90S
FORT KNOX      PTSUNNY   77  66  69 W12       29.91S
$$

KYZ035>037-039>044-047>052-055>060-089>105-211800-
NORTHEAST KENTUCKY

CITY           SKY/WX    TMP DP  RH WIND       PRES   REMARKS
LEXINGTON      PTSUNNY   80  66  62 W14G20    29.89S
COVINGTON      MOSUNNY   76  52  43 W21G29    29.86S
FRANKFORT      PTSUNNY   78  65  63 NW8G17    29.87F
$$

KYZ054-064>069-076>088-106>120-211800-
SOUTHEAST KENTUCKY

CITY           SKY/WX    TMP DP  RH WIND       PRES   REMARKS
JACKSON        CLOUDY    72  66  81 CALM      29.92F
LONDON         CLOUDY    75  65  70 W12       29.95F
SOMERSET       CLOUDY    73  64  73 W14G21    29.96S
MIDDLESBORO    LGT RAIN  74  67  76 S7        29.96F
MONTICELLO     PTSUNNY   77  67  71 SW10      29.97S
$$




USA.gov is the U.S. government's official web portal to all federal, state and local government web resources and services.